This is the latest recevied weather packets stored in our database for station/object SR9SMR. If no packets are shown the sender has not sent any weather packets the latest 10 day(s).
| Time | Temp. | Humidity | Pressure | Rain* | Wind** | Luminosity | Snow |
|---|---|---|---|---|---|---|---|
| 1777741055 | 13.89° C | 100% | 905.8 hPa | - | - | - | - |
| 1777740934 | 14.44° C | 100% | 905.8 hPa | - | - | - | - |
| 1777740621 | 14.44° C | 100% | 905.7 hPa | - | - | - | - |
| 1777740486 | 14.44° C | 100% | 905.8 hPa | - | - | - | - |
| 1777740176 | 14.44° C | 100% | 905.7 hPa | - | - | - | - |
| 1777739867 | 15° C | 100% | 905.9 hPa | - | - | - | - |
| 1777739626 | 14.44° C | 100% | 905.8 hPa | - | - | - | - |
| 1777739560 | 14.44° C | 100% | 905.6 hPa | - | - | - | - |
| 1777739392 | 15.56° C | 100% | 905.8 hPa | - | - | - | - |
| 1777739079 | 15.56° C | 100% | 906.5 hPa | - | - | - | - |
| 1777738883 | 15.56° C | 100% | 906.3 hPa | - | - | - | - |
| 1777738264 | 15.56° C | 100% | 906.2 hPa | - | - | - | - |
| 1777738131 | 15.56° C | 100% | 906.3 hPa | - | - | - | - |
| 1777738035 | 15° C | 100% | 906.3 hPa | - | - | - | - |
| 1777737731 | 15° C | 100% | 905.9 hPa | - | - | - | - |
| 1777737349 | 16.11° C | 100% | 906.2 hPa | - | - | - | - |
| 1777737038 | 16.11° C | 100% | 906.2 hPa | - | - | - | - |
| 1777736852 | 16.11° C | 100% | 906.3 hPa | - | - | - | - |
| 1777736732 | 16.67° C | 100% | 906.5 hPa | - | - | - | - |
| 1777736611 | 16.67° C | 100% | 906.8 hPa | - | - | - | - |
| 1777736490 | 16.67° C | 100% | 906.7 hPa | - | - | - | - |
| 1777736429 | 16.67° C | 100% | 906.9 hPa | - | - | - | - |
| 1777736369 | 16.67° C | 100% | 907 hPa | - | - | - | - |
| 1777736248 | 16.67° C | 100% | 906.8 hPa | - | - | - | - |
| 1777736127 | 16.11° C | 100% | 906.8 hPa | - | - | - | - |
* Rain since midnight (hover to see other rain measurements)
** Current wind speed in m/s (hover to see current wind gust speed)